カタログに戻る

STARLINK-5653

運用中通信VLEO
NORAD 55345·PAYLOAD·🇺🇸 United States

打ち上げ Jan 26, 2023 から Cape Canaveral Space Force Station

Loading…

次のパス (今後24時間)

TLE

最新Source: CelesTrak SupGP

元期: Sep 15, 2026, 01:38 UTC

1 55345C 23013Q   26258.06854167  .00032533  00000+0  11784-2 0  2587
2 55345  43.0004 299.5401 0001184 265.0836  37.9785 15.27560255    17

AllMySatでSTARLINK-5653をリアルタイム追跡

Download on the App Store